Home > Time Zones > World Clock > Weather > U.S.A. > Hilo > Past weeks

Flag for U.S.A. Weather past 2 weeks in Hilo, Hawaii, U.S.A.

Now
90 °F

Passing clouds.


Feels Like: 106 °F
Forecast: 75 / 90 °F
Wind: 14 mph from North

Location: Hilo International Airport

Current Time: Sep 1, 2015 at 1:19:57 PM

Latest Report: Sep 1, 2015 at 12:53 PM


Visibility: 10 mi

Pressure: 29.79 "Hg

Humidity: 70%

Dew point: 79 °F

Location of HiloLocation

Historic Weather in Hilo — Graph

°F

Hilo temperature yesterday

Maximum temperature yesterday: 88 °F (at 9:53 AM)
Minimum temperature yesterday: 73 °F (at 4:53 AM)
Average temperature yesterday: 81 °F

Past Weeks' High & Low Weather Summary

 TemperatureHumidityPressure
High90 °F (Aug 28, 11:53 AM)100% (Aug 17, 7:12 PM)29.97 "Hg (Aug 17, 7:12 PM)
Low72 °F (Aug 29, 5:46 AM)52% (Aug 28, 11:53 AM)29.80 "Hg (Aug 31, 3:53 PM)
Average79 °F85%29.89 "Hg
* Reported Aug 17 10:53 AM — Sep 1 10:53 AM, Hilo, Weather by CustomWeather, © 2015

Note: Actual official high and low records may vary slightly from our data, if they occured in-between our weather recording intervals... More about our weather records

Advertising

Hilo weather history for previous 24 hours

 ConditionsComfort  
Time TempWeatherWind HumidityBarometerVisibility
10:53 AM
Tue, Sep 1
90 °FPassing clouds.7 mph68%29.83 "Hg9 mi
9:53 AM87 °FPassing clouds.9 mph72%29.83 "Hg7 mi
8:53 AM85 °FPassing clouds.5 mph75%29.83 "Hg9 mi
7:53 AM81 °FPassing clouds.No wind74%29.83 "Hg10 mi
6:53 AM76 °FPassing clouds.No wind88%29.82 "Hg10 mi
5:53 AM74 °FPassing clouds.3 mph94%29.81 "Hg10 mi
4:53 AM75 °FClear.5 mph88%29.80 "Hg10 mi
3:53 AM75 °FClear.6 mph88%29.80 "Hg10 mi
2:53 AM76 °FClear.5 mph85%29.81 "Hg10 mi
1:53 AM76 °FPassing clouds.6 mph91%29.82 "Hg9 mi
1:35 AM79 °FPassing clouds.3 mph89%29.83 "Hg8 mi
12:53 AM76 °FPassing clouds.3 mph94%29.84 "Hg10 mi
11:53 PM
Mon, Aug 31
77 °FClear.3 mph90%29.83 "Hg10 mi
10:53 PM78 °FPassing clouds.No wind90%29.85 "Hg10 mi
10:46 PM79 °FPassing clouds.3 mph89%29.86 "Hg10 mi
9:53 PM79 °FPassing clouds.No wind90%29.86 "Hg10 mi
8:53 PM80 °FClear.No wind87%29.84 "Hg10 mi
7:53 PM82 °FPassing clouds.6 mph82%29.82 "Hg10 mi
6:53 PM83 °FPassing clouds.10 mph79%29.81 "Hg10 mi
5:46 PM84 °FPartly sunny.13 mph79%29.81 "Hg10 mi
5:29 PM84 °FPartly sunny.13 mph74%29.81 "Hg10 mi
4:53 PM85 °FSunny.13 mph77%29.80 "Hg10 mi
3:53 PM86 °FScattered clouds.16 mph77%29.80 "Hg10 mi
2:53 PM87 °FScattered clouds.15 mph75%29.80 "Hg10 mi
1:53 PM87 °FPassing clouds.14 mph75%29.82 "Hg10 mi
Weather by CustomWeather, © 2015

See weather overviewHow to use our weather pages